Weather History for Wenatchee, WA

Change the Weather History Date:

Wednesday, February 13, 2013

  Actual Average Record
Temperature  
Mean Temperature 32 °F 31 °F  
Max Temperature 39 °F 38 °F 59 °F (1971)
Min Temperature 24 °F 23 °F 14 °F (1995)
Degree Days  
Heating Degree Days 33 34  
Month to date heating degree days 441 452  
Since 1 July heating degree days 4384 4709  
Cooling Degree Days 0 0  
Month to date cooling degree days 0 0  
Year to date cooling degree days 0 0  
Moisture  
Dew Point 26 °F    
Average Humidity 55    
Maximum Humidity 79    
Minimum Humidity 32    
Precipitation  
Precipitation 0.00 in 0.05 in 0.40 in (1962)
Month to date precipitation 0.03 0.69  
Year to date precipitation 1.49 2.56  
Snow  
Snow 0.00 in 0.20 in - ()
Month to date snowfall 0.1 3.4  
Since 1 July snowfall 43.9 43.8  
Snow Depth 2.00 in    
Sea Level Pressure  
Sea Level Pressure 30.26 in    
Wind  
Wind Speed 5 mph (NNW)    
Max Wind Speed 14 mph    
Max Gust Speed 20 mph    
Visibility 10 miles    
Events      
T = Trace of Precipitation, MM = Missing Value Source: NWS Daily Summary

Daily Weather History Graph

Daily Weather History Graph

Search for Another Location

Airport:

Trip Planner

Search our weather history database for the weather conditions in past years. The results will help you decide how hot, cold, wet, or windy it might be!

Date:

Astronomy

Feb. 13, 2013 Rise Set
Actual Time 7:08 AM PST 5:22 PM PST
Civil Twilight 6:37 AM PST 5:53 PM PST
Nautical Twilight 6:01 AM PST 6:29 PM PST
Astronomical Twilight 5:25 AM PST 7:05 PM PST
Moon 8:21 AM PST (2/13) 9:51 PM PST (2/13)
Length of Visible Light 11h 16m
Length of Day
10h 13m
Waxing Crescent, 14% of the Moon is Illuminated
Feb 13
Waxing Crescent
Feb 17
First Quarter
Feb 25
Full
Mar 4
Last Quarter
Mar 11
New

Hourly Weather History & Observations

Time (PST) Temp. Windchill Dew Point Humidity Pressure Visibility Wind Dir Wind Speed Gust Speed Precip Events Conditions
12:55 AM 35.1 °F - 28.9 °F 78% 30.17 in 10.0 mi Calm Calm - N/A   Mostly Cloudy
1:55 AM 35.1 °F 31.0 °F 28.9 °F 78% 30.15 in 10.0 mi NE 4.6 mph - N/A   Clear
2:55 AM 36.0 °F 33.3 °F 28.9 °F 76% 30.14 in 10.0 mi NE 3.5 mph - N/A   Clear
3:55 AM 35.1 °F 30.1 °F 28.0 °F 76% 30.15 in 10.0 mi ENE 5.8 mph - N/A   Clear
4:55 AM 34.0 °F 28.8 °F 28.0 °F 79% 30.17 in 10.0 mi East 5.8 mph - N/A   Clear
5:55 AM 37.0 °F 34.5 °F 28.9 °F 73% 30.19 in 10.0 mi ENE 3.5 mph - N/A   Clear
6:55 AM 37.9 °F 33.5 °F 28.9 °F 70% 30.20 in 10.0 mi NE 5.8 mph - N/A   Clear
7:55 AM 37.9 °F 35.5 °F 28.0 °F 68% 30.23 in 10.0 mi North 3.5 mph - N/A   Clear
8:55 AM 41.0 °F - 30.0 °F 65% 30.25 in 10.0 mi Calm Calm - N/A   Clear
9:55 AM 48.0 °F - 28.9 °F 48% 30.26 in 10.0 mi Calm Calm - N/A   Clear
10:55 AM 48.0 °F - 28.9 °F 48% 30.27 in 10.0 mi WSW 6.9 mph - N/A   Clear
11:55 AM 48.9 °F - 28.0 °F 44% 30.26 in 10.0 mi WNW 9.2 mph - N/A   Clear
12:55 PM 51.1 °F - 25.0 °F 36% 30.25 in 10.0 mi West 9.2 mph - N/A   Clear
1:55 PM 52.0 °F - 24.1 °F 34% 30.25 in 10.0 mi NW 10.4 mph 19.6 mph N/A   Clear
2:55 PM 53.1 °F - 24.1 °F 32% 30.26 in 10.0 mi WNW 12.7 mph - N/A   Clear
3:55 PM 51.1 °F - 21.9 °F 32% 30.27 in 10.0 mi NW 13.8 mph - N/A   Clear
4:55 PM 50.0 °F - 21.9 °F 33% 30.28 in 10.0 mi Variable 5.8 mph 17.3 mph N/A   Partly Cloudy
5:55 PM 46.9 °F - 23.0 °F 39% 30.30 in 10.0 mi WNW 5.8 mph - N/A   Clear
6:55 PM 43.0 °F 40.3 °F 23.0 °F 45% 30.33 in 10.0 mi Variable 4.6 mph - N/A   Clear
7:55 PM 43.0 °F 38.2 °F 24.1 °F 47% 30.33 in 10.0 mi West 8.1 mph - N/A   Clear
8:55 PM 42.1 °F 36.6 °F 24.1 °F 49% 30.34 in 10.0 mi NW 9.2 mph - N/A   Clear
9:55 PM 41.0 °F 36.4 °F 24.1 °F 51% 30.35 in 10.0 mi NW 6.9 mph - N/A   Clear
10:55 PM 39.0 °F 35.7 °F 24.1 °F 55% 30.38 in 10.0 mi NNW 4.6 mph - N/A   Clear
11:55 PM 37.9 °F 32.1 °F 24.1 °F 57% 30.38 in 10.0 mi NNW 8.1 mph - N/A   Clear